Kodiak, AK

3:02 PM AKDT on July 25, 2017 (GMT -0800)
Kodiak

Weather History for PADQ - October, 2011

Change the Weather History Date:

Monday, October 24, 2011

  Actual Average Record
Temperature  
Mean Temperature 46 °F 38 °F  
Max Temperature 48 °F 44 °F 56 °F (1918)
Min Temperature 43 °F 33 °F 17 °F (1935)
Degree Days  
Heating Degree Days 19 27  
Month to date heating degree days 541 567  
Since 1 July heating degree days 1633 1668  
Cooling Degree Days 0 0  
Month to date cooling degree days 0 0  
Year to date cooling degree days 0 1  
Moisture  
Dew Point 40 °F    
Average Humidity 0    
Maximum Humidity 0    
Minimum Humidity 0    
Precipitation  
Precipitation 0.39 in 0.25 in 1.61 in (2002)
Month to date precipitation 2.81 6.50  
Year to date precipitation 57.68 60.64  
Snow  
Snow 0.00 in 0.00 in 1.00 in (1965)
Month to date snowfall 0.0 0.6  
Since 1 July snowfall 0.0 0.6  
Since 1 September snowfall 0.0 0.6  
Snow Depth 0.00 in    
Sea Level Pressure  
Sea Level Pressure 29.45 in    
Wind  
Wind Speed 10 mph (SSE)    
Max Wind Speed 31 mph    
Max Gust Speed 39 mph    
Visibility 8 miles    
Events Rain    
T = Trace of Precipitation, MM = Missing Value Source: NWS Daily Summary

Daily Weather History Graph

Daily Weather History Graph

Search for Another Location

Airport or City:

Trip Planner

Search our weather history database for the weather conditions in past years. The results will help you decide how hot, cold, wet, or windy it might be!

Date:

Astronomy

Oct. 24, 2011 Rise Set
Actual Time 9:04 AM AKDT 6:42 PM AKDT
Civil Twilight 8:24 AM AKDT 7:23 PM AKDT
Nautical Twilight 7:38 AM AKDT 8:08 PM AKDT
Astronomical Twilight 6:53 AM AKDT 8:53 PM AKDT
Moon 6:14 AM AKDT (10/24) 5:27 PM AKDT (10/24)
Length of Visible Light 10h 58m
Length of Day
9h 37m
Waning Crescent, 6% of the Moon is Illuminated
Oct 24
Waning Crescent
Oct 26
New
Nov 2
First Quarter
Nov 10
Full
Nov 18
Last Quarter

Hourly Weather History & Observations

Time (AKDT) Temp. Windchill Dew Point Humidity Pressure Visibility Wind Dir Wind Speed Gust Speed Precip Events Conditions
12:53 AM 46.0 °F 44.8 °F 37.0 °F 71% 29.62 in 10.0 mi WSW 3.5 mph - N/A   Overcast
1:53 AM 45.0 °F 41.8 °F 37.0 °F 74% 29.62 in 10.0 mi South 5.8 mph - N/A   Overcast
2:53 AM 45.0 °F - 37.9 °F 76% 29.62 in 10.0 mi Calm Calm - N/A   Overcast
3:53 AM 46.0 °F 44.8 °F 37.0 °F 71% 29.61 in 10.0 mi SSW 3.5 mph - N/A   Overcast
4:53 AM 45.0 °F - 36.0 °F 71% 29.60 in 10.0 mi Calm Calm - N/A   Overcast
5:53 AM 45.0 °F 40.6 °F 37.9 °F 76% 29.59 in 10.0 mi SSE 8.1 mph - N/A   Overcast
6:53 AM 45.0 °F 40.6 °F 39.0 °F 80% 29.56 in 10.0 mi SE 8.1 mph - 0.00 in Rain Light Rain
7:15 AM 44.6 °F 43.1 °F 39.2 °F 81% 29.55 in 10.0 mi ESE 3.5 mph - 0.00 in   Overcast
7:53 AM 45.0 °F 39.3 °F 39.9 °F 82% 29.53 in 9.0 mi South 11.5 mph - 0.00 in Rain Light Rain
8:53 AM 45.0 °F 43.5 °F 41.0 °F 86% 29.52 in 6.0 mi SSW 3.5 mph - 0.07 in Rain Rain
9:53 AM 45.0 °F 40.6 °F 39.0 °F 80% 29.50 in 10.0 mi SSW 8.1 mph - 0.05 in Rain Light Rain
10:53 AM 46.0 °F 39.0 °F 39.9 °F 79% 29.48 in 5.0 mi SSE 17.3 mph - 0.02 in Rain Light Rain
11:53 AM 46.9 °F - 41.0 °F 80% 29.47 in 5.0 mi SSE 10.4 mph 24.2 mph 0.07 in Rain Rain
12:53 PM 46.9 °F - 42.1 °F 83% 29.44 in 5.0 mi SSE 24.2 mph 31.1 mph 0.05 in Rain Light Rain
1:18 PM 48.2 °F - 42.8 °F 82% 29.43 in 5.0 mi SSE 23.0 mph 31.1 mph 0.04 in Rain Rain
1:53 PM 48.0 °F - 42.1 °F 80% 29.42 in 4.0 mi SSE 24.2 mph 39.1 mph 0.09 in Rain Rain
2:53 PM 46.9 °F - 39.9 °F 77% 29.42 in 5.0 mi South 17.3 mph 26.5 mph 0.04 in Rain Light Rain
3:53 PM 46.9 °F - 42.1 °F 83% 29.39 in 7.0 mi SSE 11.5 mph - 0.01 in Rain Light Rain
4:53 PM 48.0 °F - 42.1 °F 80% 29.34 in 7.0 mi SSE 24.2 mph 34.5 mph 0.03 in Rain Light Rain
5:53 PM 48.0 °F - 42.1 °F 80% 29.33 in 6.0 mi South 23.0 mph 28.8 mph 0.03 in Rain Light Rain
6:53 PM 46.9 °F - 41.0 °F 80% 29.32 in 10.0 mi South 13.8 mph - 0.03 in Rain Light Rain
7:53 PM 46.0 °F 39.3 °F 41.0 °F 83% 29.31 in 8.0 mi SSE 16.1 mph 23.0 mph 0.03 in Rain Light Rain
8:53 PM 46.0 °F 39.6 °F 41.0 °F 83% 29.30 in 5.0 mi SSE 15.0 mph 24.2 mph 0.06 in Rain Rain
9:53 PM 46.9 °F - 39.9 °F 77% 29.27 in 8.0 mi SSE 33.4 mph 44.9 mph 0.06 in Rain Light Rain
10:53 PM 46.0 °F 37.8 °F 39.9 °F 79% 29.26 in 6.0 mi SSE 23.0 mph 32.2 mph 0.07 in Rain Light Rain
11:53 PM 46.0 °F 37.8 °F 41.0 °F 83% 29.20 in 6.0 mi SE 23.0 mph 33.4 mph 0.07 in Rain Light Rain